SCP
0 0 -0 0 0 0 -0 0 -0 0 -0 0 0 0 -0 0 -0 0 0 0 0 -0 -0 -0 -0 -0 0 0 0 0 0 0
0 0 0 0 0 0 0 0 -0 -0 -0 0 -0 0 -0 0 -0 0 -0 0 -0 -0 -0 -0 -0 -0 0 0 0 0 0 0
-0 0 0 0 0 0 0 -0 -0 0 -0 0 0 -0 -0 -0 0 -0 -0 -0 -0 -0 -0 -0 -0 0 0 0 -0 -0 -0 -0
-0 0 0 -0 -0 -0 -0 -0 -0 -0 -0 0 -0 -0 -0 0 0 0 -0 -0 -0 0 0 0 0 0 0 0 0 -0 -0 -0
0 -0 -0 -0 -0 -0 -0 -0 -0 -0 -0 0 0 -0 -0 -0 0 0 -0 -0 -0 -0 0 0 0 0 0 0 -0 0 0 0
-0 -0 -0 -0 -0 0 -0 -0 -0 -0 0 0 0 -0 -0 -0 0 0 -0 0 0 0 0 0 0 0 0 0 0 0 -0 -0
0 0 0 -0 0 0 0 -0 -0 0 -0 -0 -0 -0 -0 0 0 0 0 0 0 0 0 0 0 0 0 -0 0 0 0 0
0 0 0 -0 -0 0 -0 -0 -0 -0 -0 -0 -0 -0 -0 0 0 0 0 0 0 0 0 0 0 0 0 0 0 0 0 0
0 0 -0 -0 0 0 -0 -0 -0 -0 -0 -0 -0 -0 -0 0 0 0 0 0 0 0 0 0 0 0 0 0 0 0 0 0
0 -0 -0 -0 -0 -0 0 0 -0 -0 -0 -0 -0 0 -0 -0 0 0 0 0 0 0 0 0 0 0 0 0 0 0 0 0
-0 -0 -0 -0 -0 -0 -0 -0 -0 -0 -0 -0 -0 0 0 0 0 0 0 0 0 0 0 0 0 0 0 0 0 0 0 0
0 0 0 -0 0 -0 -0 -0 -0 -0 0 0 0 0 0 0 0 0 0 0 0 0 0 0 0 0 0 0 0 0 0 -0
0 0 0 -0 0 0 -0 -0 -0 0 0 0 0 0 0 0 0 0 0 0 0 0 0 0 0 0 0 0 0 0 0 0
0 0 0 0 0 0 -0 -0 -0 -0 0 0 0 0 0 0 0 0 0 0 0 0 0 0 0 0 0 0 0 0 0 0
0 0 0 0 -0 0 0 -0 -0 -0 -0 0 0 0 0 0 0 0 0 0 0 0 0 0 0 0 0 0 0 0 0 0
0 0 0 -0 0 0 -0 -0 -0 -0 0 0 0 0 0 0 0 0 0 0 0 0 0 0 0 0 0 0 0 0 0 0
0 0 0 0 -0 0 -0 0 0 0 0 0 0 0 0 0 0 0 0 0 0 0 0 0 0 0 0 0 0 0 0 0
0 -0 0 -0 -0 0 0 0 0 0 0 0 0 0 0 0 0 0 0 0 0 0 0 0 0 0 0 0 0 0 0 0
0 0 0 0 -0 0 0 0 0 0 0 0 -0 0 0 0 0 0 0 0 0 0 0 0 0 0 0 0 0 0 0 0
0 0 0 0 0 0 0 0 0 0 0 0 0 0 0 0 0 0 0 0 0 0 0 0 0 0 0 0 0 0 0 0
Wind_Speed_500mb
8 6 7 6 9 7 11 18 15 15 23 18 30 34 35 30 26 26 28 27 29 29 30 31 29 27 24 20 16 13 11 9
9 5 8 9 14 9 8 35 36 34 16 30 30 39 50 43 40 32 32 33 35 36 38 37 35 32 28 24 21 17 11 8
6 5 9 14 14 30 10 12 38 25 21 23 22 44 45 41 40 34 43 42 42 40 38 34 32 31 30 28 23 18 12 9
7 14 24 3 25 29 31 44 45 37 35 18 35 45 45 48 45 41 47 45 42 35 33 33 30 30 29 28 25 20 14 11
7 4 5 9 36 28 39 44 19 42 19 30 50 53 49 50 47 46 45 40 33 28 23 22 23 24 26 27 24 22 17 12
7 10 5 16 21 35 56 24 52 50 17 31 42 50 49 48 48 44 42 30 24 18 13 13 18 22 28 32 32 31 28 25
14 23 14 31 15 35 24 54 25 17 61 62 56 62 58 52 48 41 36 30 27 23 24 21 16 17 19 29 33 38 41 33
17 21 31 47 54 34 24 31 35 57 58 67 63 59 56 54 54 44 38 32 22 22 22 16 12 14 25 32 37 42 42 40
29 37 63 43 24 21 49 16 60 67 69 66 56 55 58 58 48 42 36 31 20 15 12 4 6 17 27 32 40 44 43 41
33 47 39 34 34 29 11 28 59 70 73 65 64 58 55 58 51 45 30 21 15 10 4 6 16 20 25 34 37 41 44 44
36 57 53 43 26 24 21 50 52 63 66 66 67 61 61 53 44 32 26 17 8 7 6 10 16 15 18 22 27 34 40 43
35 40 43 33 29 23 41 54 46 56 61 55 52 64 65 58 53 41 33 22 12 6 6 6 11 11 17 17 24 32 38 43
23 8 10 44 5 18 61 59 48 42 55 58 62 74 72 65 54 41 31 23 15 8 6 7 8 7 9 17 25 33 37 40
4 4 4 6 9 8 63 61 53 55 73 76 71 71 62 51 42 33 29 21 14 10 10 7 8 7 12 16 24 30 33 39
1 7 5 9 7 26 60 59 55 64 68 73 69 62 58 49 39 34 29 25 20 12 6 4 7 7 9 14 22 24 30 40
9 9 10 10 16 9 43 54 51 60 65 71 71 65 58 48 39 31 28 25 14 9 6 6 5 10 11 14 16 21 31 38
1 6 8 19 28 18 46 41 36 50 59 69 69 67 60 53 47 39 27 21 14 7 6 7 2 14 14 11 11 22 32 28
5 19 12 8 28 15 38 40 52 59 60 72 69 69 66 58 51 42 25 20 9 6 6 6 3 9 11 7 12 23 19 24
20 8 4 6 18 9 13 43 59 60 72 80 90 86 76 65 53 40 26 15 5 2 7 5 2 3 11 7 9 10 14 21
16 12 11 19 11 12 11 33 44 46 58 72 77 80 82 67 54 38 25 12 4 6 8 8 7 10 16 12 4 13 17 19
Wind_Direction_500mb
73 74 109 179 239 180 164 152 112 93 63 67 107 124 144 125 138 124 108 103 94 90 86 84 81 77 75 76 74 67 61 64
44 331 245 200 218 244 170 90 89 108 68 83 111 137 133 125 110 98 106 101 97 92 87 82 78 78 77 76 74 74 74 66
93 264 264 207 223 184 190 90 110 105 111 96 103 134 128 119 101 97 106 102 100 95 88 82 76 68 63 61 58 55 51 59
115 241 246 127 173 180 111 114 105 108 106 106 133 153 143 119 105 106 107 109 103 89 72 57 52 56 54 51 44 38 36 29
181 284 133 188 201 199 128 131 133 129 112 138 143 160 144 121 115 111 106 99 91 81 60 43 46 40 34 27 17 7 355 336
200 177 221 236 174 156 144 148 146 134 156 162 142 166 150 134 123 118 109 103 103 114 95 49 42 30 16 6 356 347 339 332
166 161 181 184 125 152 161 142 169 226 153 146 146 155 155 142 131 128 125 131 134 131 103 103 63 43 9 349 347 345 343 350
225 156 152 149 129 130 129 136 114 123 141 149 147 149 151 152 150 145 140 128 118 113 103 95 50 3 341 343 344 344 346 348
132 159 147 146 134 131 125 139 153 152 160 166 169 158 156 154 153 145 148 145 148 158 168 173 0 348 343 342 339 342 344 347
161 164 146 146 132 142 179 172 162 159 165 170 178 177 168 156 154 151 157 151 140 169 159 355 354 348 338 331 335 335 340 341
159 157 148 143 147 153 157 159 167 165 171 178 180 172 167 163 164 175 158 148 165 204 331 340 334 350 326 323 325 333 334 340
130 139 145 129 141 122 155 159 163 171 175 180 186 180 168 163 158 151 147 158 194 245 314 320 333 327 324 323 327 327 335 340
39 358 107 119 64 149 163 165 174 176 188 177 169 159 158 154 155 163 171 184 203 221 306 326 343 331 305 320 323 328 336 340
294 22 164 188 213 187 165 168 175 148 146 152 153 159 160 167 169 182 202 210 214 263 280 316 348 350 320 325 325 329 335 341
333 140 110 40 126 176 176 174 178 157 158 161 163 168 173 184 197 198 200 214 217 235 247 341 324 285 294 308 314 330 337 343
167 191 163 156 210 218 198 185 187 168 164 169 170 174 179 192 207 226 219 210 229 255 279 312 283 265 271 292 315 328 342 358
88 202 159 245 266 188 203 208 190 174 172 174 177 176 182 193 210 216 218 226 239 250 288 312 245 198 243 280 321 338 351 19
346 252 163 347 267 179 203 189 188 193 185 176 176 179 181 187 193 196 208 235 247 255 324 348 360 178 242 281 341 351 20 38
211 235 62 60 313 204 168 184 192 201 193 185 184 182 184 187 192 196 200 214 249 318 6 36 59 210 186 236 329 357 37 36
210 128 218 139 256 294 194 187 189 191 193 183 177 180 185 186 187 191 202 210 203 18 359 49 90 207 243 264 354 46 37 29
Wind_Speed_850mb
8 6 7 6 9 7 11 18 15 15 23 18 30 34 35 30 26 26 28 27 29 29 30 31 29 27 24 20 16 13 11 9
9 5 8 9 14 9 8 35 36 34 16 30 30 39 50 43 40 32 32 33 35 36 38 37 35 32 28 24 21 17 11 8
6 5 9 14 14 30 10 12 38 25 21 23 22 44 45 41 40 34 43 42 42 40 38 34 32 31 30 28 23 18 12 9
7 14 24 3 25 29 31 44 45 37 35 18 35 45 45 48 45 41 47 45 42 35 33 33 30 30 29 28 25 20 14 11
7 4 5 9 36 28 39 44 19 42 19 30 50 53 49 50 47 46 45 40 33 28 23 22 23 24 26 27 24 22 17 12
7 10 5 16 21 35 56 24 52 50 17 31 42 50 49 48 48 44 42 30 24 18 13 13 18 22 28 32 32 31 28 25
14 23 14 31 15 35 24 54 25 17 61 62 56 62 58 52 48 41 36 30 27 23 24 21 16 17 19 29 33 38 41 33
17 21 31 47 54 34 24 31 35 57 58 67 63 59 56 54 54 44 38 32 22 22 22 16 12 14 25 32 37 42 42 40
29 37 63 43 24 21 49 16 60 67 69 66 56 55 58 58 48 42 36 31 20 15 12 4 6 17 27 32 40 44 43 41
33 47 39 34 34 29 11 28 59 70 73 65 64 58 55 58 51 45 30 21 15 10 4 6 16 20 25 34 37 41 44 44
36 57 53 43 26 24 21 50 52 63 66 66 67 61 61 53 44 32 26 17 8 7 6 10 16 15 18 22 27 34 40 43
35 40 43 33 29 23 41 54 46 56 61 55 52 64 65 58 53 41 33 22 12 6 6 6 11 11 17 17 24 32 38 43
23 8 10 44 5 18 61 59 48 42 55 58 62 74 72 65 54 41 31 23 15 8 6 7 8 7 9 17 25 33 37 40
4 4 4 6 9 8 63 61 53 55 73 76 71 71 62 51 42 33 29 21 14 10 10 7 8 7 12 16 24 30 33 39
1 7 5 9 7 26 60 59 55 64 68 73 69 62 58 49 39 34 29 25 20 12 6 4 7 7 9 14 22 24 30 40
9 9 10 10 16 9 43 54 51 60 65 71 71 65 58 48 39 31 28 25 14 9 6 6 5 10 11 14 16 21 31 38
1 6 8 19 28 18 46 41 36 50 59 69 69 67 60 53 47 39 27 21 14 7 6 7 2 14 14 11 11 22 32 28
5 19 12 8 28 15 38 40 52 59 60 72 69 69 66 58 51 42 25 20 9 6 6 6 3 9 11 7 12 23 19 24
20 8 4 6 18 9 13 43 59 60 72 80 90 86 76 65 53 40 26 15 5 2 7 5 2 3 11 7 9 10 14 21
16 12 11 19 11 12 11 33 44 46 58 72 77 80 82 67 54 38 25 12 4 6 8 8 7 10 16 12 4 13 17 19
Wind_Direction_850mb
73 74 109 179 239 180 164 152 112 93 63 67 107 124 144 125 138 124 108 103 94 90 86 84 81 77 75 76 74 67 61 64
44 331 245 200 218 244 170 90 89 108 68 83 111 137 133 125 110 98 106 101 97 92 87 82 78 78 77 76 74 74 74 66
93 264 264 207 223 184 190 90 110 105 111 96 103 134 128 119 101 97 106 102 100 95 88 82 76 68 63 61 58 55 51 59
115 241 246 127 173 180 111 114 105 108 106 106 133 153 143 119 105 106 107 109 103 89 72 57 52 56 54 51 44 38 36 29
181 284 133 188 201 199 128 131 133 129 112 138 143 160 144 121 115 111 106 99 91 81 60 43 46 40 34 27 17 7 355 336
200 177 221 236 174 156 144 148 146 134 156 162 142 166 150 134 123 118 109 103 103 114 95 49 42 30 16 6 356 347 339 332
166 161 181 184 125 152 161 142 169 226 153 146 146 155 155 142 131 128 125 131 134 131 103 103 63 43 9 349 347 345 343 350
225 156 152 149 129 130 129 136 114 123 141 149 147 149 151 152 150 145 140 128 118 113 103 95 50 3 341 343 344 344 346 348
132 159 147 146 134 131 125 139 153 152 160 166 169 158 156 154 153 145 148 145 148 158 168 173 0 348 343 342 339 342 344 347
161 164 146 146 132 142 179 172 162 159 165 170 178 177 168 156 154 151 157 151 140 169 159 355 354 348 338 331 335 335 340 341
159 157 148 143 147 153 157 159 167 165 171 178 180 172 167 163 164 175 158 148 165 204 331 340 334 350 326 323 325 333 334 340
130 139 145 129 141 122 155 159 163 171 175 180 186 180 168 163 158 151 147 158 194 245 314 320 333 327 324 323 327 327 335 340
39 358 107 119 64 149 163 165 174 176 188 177 169 159 158 154 155 163 171 184 203 221 306 326 343 331 305 320 323 328 336 340
294 22 164 188 213 187 165 168 175 148 146 152 153 159 160 167 169 182 202 210 214 263 280 316 348 350 320 325 325 329 335 341
333 140 110 40 126 176 176 174 178 157 158 161 163 168 173 184 197 198 200 214 217 235 247 341 324 285 294 308 314 330 337 343
167 191 163 156 210 218 198 185 187 168 164 169 170 174 179 192 207 226 219 210 229 255 279 312 283 265 271 292 315 328 342 358
88 202 159 245 266 188 203 208 190 174 172 174 177 176 182 193 210 216 218 226 239 250 288 312 245 198 243 280 321 338 351 19
346 252 163 347 267 179 203 189 188 193 185 176 176 179 181 187 193 196 208 235 247 255 324 348 360 178 242 281 341 351 20 38
211 235 62 60 313 204 168 184 192 201 193 185 184 182 184 187 192 196 200 214 249 318 6 36 59 210 186 236 329 357 37 36
210 128 218 139 256 294 194 187 189 191 193 183 177 180 185 186 187 191 202 210 203 18 359 49 90 207 243 264 354 46 37 29